Regional Weather Roundup
Issued by NWS

Home | Current Version | Previous Version | Graphics & Text | Print | Product List | Glossary On
Versions: 1 2 3 4 5 6 7 8 9 10 11 12 13 14 15 16 17 18 19 20 21 22 23 24 25 26 27 28 29 30 31 32 33 34 35 36 37 38 39 40 41 42 43 44 45 46 47 48 49 50
000
ASUS43 KDMX 201901
RWRIA

WEATHER ROUNDUP FOR IOWA
NATIONAL WEATHER SERVICE DES MOINES IA
100 PM CST FRI JAN 20 2017

NOTE: "FAIR" INDICATES FEW OR NO CLOUDS BELOW 12,000 FEET WITH NO
SIGNIFICANT WEATHER AND/OR OBSTRUCTIONS TO VISIBILITY.

* - THESE STATIONS ARE NOT NWS STATIONS...THUS NOT UNDER NWS
QUALITY CONTROL.  THEY ALSO DO NOT REPORT WEATHER SUCH
AS PRECIPITATION OR FOG.

IAZ001>003-012>014-020>022-031>034-043>046-202000-
   NORTHWEST IOWA

CITY           SKY/WX    TMP DP  RH WIND       PRES   REMARKS
CARROLL *      FOG       39  39 100 SE8       29.52F VSB 1/2 WCI  34
CHEROKEE *     CLOUDY    39  39 100 SE6       29.49F FOG
DENISON *      PTSUNNY   41  41 100 SE9       29.49F
LE MARS *      CLOUDY    43  41  93 SE9       29.48F FOG
ORANGE CITY *  CLOUDY    39  39 100 SE6       29.47F FOG     WCI  35
SHELDON *      CLOUDY    39  39 100 S15       29.47F FOG     WCI  31
SIOUX CITY     CLOUDY    42  40  92 SE10      29.48F FOG
SPENCER        CLOUDY    38  38 100 S9        29.50F FOG     WCI  31
STORM LAKE *   MIX PCPN  37  37 100 SE8       29.50F VSB<1/4 WCI  31
$$

IAZ055>058-069>071-079>083-090>094-202000-
   SOUTHWEST IOWA

CITY           SKY/WX    TMP DP  RH WIND       PRES   REMARKS
ATLANTIC *     CLOUDY    41  41 100 SE5       29.52F
AUDUBON *      CLOUDY    41  39  93 E8        29.52F
CLARINDA *     CLOUDY    43  43 100 SE5       29.53F
COUNCIL BLFS * CLOUDY    43  43 100 SE7       29.49F
CRESTON *      CLOUDY    41  41 100 SE9       29.54F FOG
HARLAN  *      CLOUDY    41  41 100 E7        29.54F
LAMONI         CLOUDY    42  41  96 E6        29.53F
RED OAK *      CLOUDY    43  43 100 SE10      29.51F
SHENANDOAH *   CLOUDY    43  43 100 SE9       29.51F
$$

IAZ047>049-059>061-072>074-084-202000-
   CENTRAL IOWA

CITY           SKY/WX    TMP DP  RH WIND       PRES   REMARKS
AMES           FOG       38  38 100 SE3       29.55F VSB 1/2
ANKENY *       CLOUDY    41  39  93 E6        29.56F
BOONE *        FOG       37  37 100 SE6       29.53F VSB<1/4 WCI  33
CHARITON *     CLOUDY    41  41 100 SE5       29.55F
DES MOINES     CLOUDY    42  40  92 SE7       29.55F FOG
GRINNELL*      FOG       38  38  99 E5        29.56F VSB<1/4 WCI  34
KNOXVILLE *    FOG       39  39 100 SE6       29.55S VSB 1/4 WCI  35
MARSHALLTOWN   FOG       38  38 100 SE7       29.55F VSB 1/2 WCI  33
NEWTON *       FOG       39  39 100 SE7       29.55F VSB 1/4 WCI  34
PELLA *        FOG       39  38  99 SE7       29.57F VSB 1/2 WCI  34
PERRY *        CLOUDY    40  39  97 E6        29.54F
$$

IAZ004>006-015-016-023>025-035-036-202000-
   NORTH CENTRAL IOWA

CITY           SKY/WX    TMP DP  RH WIND       PRES   REMARKS
ALGONA *       CLOUDY    37  37 100 S8        29.53F FOG     WCI  31
CLARION *      CLOUDY    36  36 100 S9        29.55S WCI  29
ESTHERVILLE    FOG       35  35 100 SE10      29.50F VSB 1/4 WCI  27
FORT DODGE *   CLOUDY    36  34  93 CALM      29.55F
MASON CITY     FOG       34  34 100 SE5       29.55F VSB 1/4 WCI  30
FOREST CITY *  FOG       36  36 100 S6        29.53F VSB 1/2 WCI  31
WEBSTER CITY * FOG       37  37 100 SE5       29.53F VSB 1/4 WCI  34
IOWA FALLS *   FOG       37  37  98 SE6       29.57F VSB 1/4 WCI  32
$$

IAZ007>011-017>019-026>030-037>042-050>054-066-202000-
   NORTHEAST IOWA

CITY           SKY/WX    TMP DP  RH WIND       PRES   REMARKS
CEDAR RAPIDS   CLOUDY    38  38 100 S6        29.56F FOG     WCI  33
CHARLES CITY * FOG       36  36 100 E5        29.55F VSB<1/4 WCI  32
CLINTON *      CLOUDY    41  40  96 E5        29.58F FOG
DECORAH *      FOG       36  36 100 SE7       29.57S VSB<1/4 WCI  30
DUBUQUE        FOG       38  38 100 E5        29.57F VSB 1/4 WCI  34
MONTICELLO *   CLOUDY    39  39 100 S8        29.57F FOG     WCI  34
OELWEIN *      FOG       36  36 100 SE6       29.56F VSB<1/4 WCI  31
WATERLOO       CLOUDY    39  37  92 S3        29.55F FOG
$$

IAZ064-065-067-068-078-202000-
   EAST CENTRAL IOWA

CITY           SKY/WX    TMP DP  RH WIND       PRES   REMARKS
DAVENPORT      CLOUDY    43  41  93 S5        29.57F
IOWA CITY      CLOUDY    41  39  93 CALM      29.58F FOG
MUSCATINE *    CLOUDY    43  41  93 CALM      29.59S
QUAD CITIES    CLOUDY    45  41  86 S5        29.57F
$$

IAZ062-063-075>077-085>089-095>099-202000-
   SOUTHEAST IOWA

CITY           SKY/WX    TMP DP  RH WIND       PRES   REMARKS
BURLINGTON     CLOUDY    43  43 100 S5        29.58S FOG
FAIRFIELD *    FOG       41  41 100 E6        29.56F VSB<1/4
FORT MADISON * CLOUDY    45  45 100 SE3       29.58F FOG
KEOKUK *       CLOUDY    45 N/A N/A E5        29.57F FOG
OSKALOOSA *    FOG       39  39  98 SE7       29.57S VSB 1/2 WCI  34
OTTUMWA        CLOUDY    41  40  96 SE7       29.56F FOG
WASHINGTON *   CLOUDY    41  41 100 S9        29.59S FOG
$$

ABBREVIATIONS USED IN REMARKS
   TC - TEMPERATURES IN CELSIUS
  WCI - WIND CHILL INDEX
   HX - HEAT INDEX
  VSB - VISIBILITY
$$





USA.gov is the U.S. government's official web portal to all federal, state and local government web resources and services.